Location: Biltmore Gardens
(41.6070°N, 83.4666°W)
Time: 14:38:46
(UTC+00:00)

Envisat - Visible Passes

Search period start: 25 February 2021 00:00
Search period end: 07 March 2021 00:00
Orbit: 764 x 766 km, 98.1° (Epoch: 24 February)

Date Brightness Start Highest point End Pass type
(mag) Time Alt. Az. Time Alt. Az. Time Alt. Az.
25 Feb 6.6 00:00:01 10° WSW 00:01:43 12° W 00:03:25 10° WNW visible
25 Feb 5.2 10:26:15 10° NE 10:30:33 27° E 10:34:50 10° SSE visible
26 Feb 6.2 09:51:25 10° ENE 09:53:21 12° E 09:55:17 10° ESE visible
26 Feb 3.0 11:27:51 10° N 11:32:57 78° WNW 11:38:00 10° SSW visible
27 Feb 4.1 10:51:11 10° NNE 10:56:06 47° E 11:00:58 10° S visible
27 Feb 6.3 23:47:16 10° SW 23:50:08 15° W 23:53:02 10° NW visible
28 Feb 5.5 10:15:10 10° NE 10:19:03 22° E 10:22:53 10° SE visible
01 Mar 3.1 11:16:25 10° NNE 11:21:31 84° ESE 11:26:36 10° SSW visible
02 Mar 4.6 10:39:54 10° NNE 10:44:37 37° E 10:49:18 10° SSE visible
03 Mar 5.9 10:04:13 10° NE 10:07:30 17° E 10:10:45 10° SE visible
04 Mar 3.5 11:05:01 10° NNE 11:10:05 66° E 11:15:08 10° S visible
05 Mar 6.8 00:03:23 10° W 00:04:17 10° W 00:05:14 10° WNW visible
05 Mar 5.0 10:28:42 10° NE 10:33:07 29° E 10:37:31 10° SSE visible
06 Mar 6.1 09:53:34 10° ENE 09:55:57 13° E 09:58:19 10° ESE visible
06 Mar 3.0 11:30:24 10° N 11:35:29 72° WNW 11:40:31 10° SSW visible
